This demonstration page uses our WeatherBlox Daily Observations layout. Learn more.

Left ArrowRight Arrow

39.51506, -84.39828

Hourly Observations for October 10, 2018

Temp ( °F °C ) Dew Point ( °F °C ) Humidity (%) Winds ( mph kmh ) Pressure ( in mb ) Visibility ( mi km ) Precip ( " mm )
12:15 am 00:15 Clear 72 22 65 18.1 79 79 SE 6 9 29.97 1015 10 16.0934 0 0
12:35 am 00:35 Clear 71 21.9 65 18.1 79 79 SSE 5 7 29.97 1015 10 16.0934 0 0
12:55 am 00:55 Clear 71 21.5 65 18.1 81 81 S 3 6 29.97 1015 10 16.0934 0 0
1:15 am 01:15 Clear 69 20.7 64 18 85 85 Calm 29.97 1015 10 16.0934 0 0
1:35 am 01:35 Clear 67 19.7 64 18 90 90 Calm 29.97 1015 10 16.0934 0 0
1:55 am 01:55 Clear 69 20.3 64 18 87 87 SSE 3 6 29.97 1015 10 16.0934 0 0
2:15 am 02:15 Clear 70 21 64 18 83 83 Calm 29.97 1015 10 16.0934 0 0
2:35 am 02:35 Clear 69 20.6 65 18.1 86 86 SE 3 6 29.97 1015 10 16.0934 0 0
2:55 am 02:55 Clear 69 20.5 65 18.1 86 86 SE 3 6 29.97 1015 10 16.0934 0 0
3:15 am 03:15 Clear 69 20.5 65 18.1 86 86 SE 3 6 29.97 1015 10 16.0934 0 0
3:35 am 03:35 Clear 68 20 64 17.9 88 88 Calm 29.94 1014 10 16.0934 0 0
3:55 am 03:55 Clear 69 20.5 65 18.2 87 87 SE 3 6 29.94 1014 10 16.0934 0 0
4:15 am 04:15 Clear 67 19.3 64 18 92 92 Calm 29.94 1014 10 16.0934 0 0
4:35 am 04:35 Clear 68 20.1 64 18 88 88 Calm 29.94 1014 10 16.0934 0 0
4:55 am 04:55 Clear 67 19.7 64 17.9 89 89 Calm 29.94 1014 10 16.0934 0 0
5:15 am 05:15 Clear 68 19.9 64 17.9 88 88 Calm 29.94 1014 10 16.0934 0 0
5:35 am 05:35 Clear 68 19.8 64 17.9 89 89 SE 3 6 29.94 1014 10 16.0934 0 0
5:55 am 05:55 Clear 68 20.1 64 17.8 87 87 SSE 3 6 29.94 1014 10 16.0934 0 0
6:15 am 06:15 Clear 68 19.9 64 17.7 87 87 ESE 5 7 29.91 1013 10 16.0934 0 0
6:35 am 06:35 Partly Cloudy 69 20.3 64 17.8 86 86 SSE 5 7 29.91 1013 10 16.0934 0 0
6:55 am 06:55 Cloudy 69 20.4 64 17.8 85 85 SE 5 7 29.91 1013 10 16.0934 0 0
7:15 am 07:15 Cloudy 69 20.6 64 17.7 84 84 SSE 7 11 29.91 1013 10 16.0934 0 0
7:35 am 07:35 Cloudy 69 20.6 64 17.7 84 84 SE 5 7 29.91 1013 10 16.0934 0 0
7:55 am 07:55 Cloudy 69 20.6 64 17.7 84 84 SSE 5 7 29.91 1013 10 16.0934 0 0
8:15 am 08:15 Mostly Cloudy 69 20.8 64 17.8 83 83 SSE 5 7 29.91 1013 10 16.0934 0 0
8:35 am 08:35 Sunny 71 21.4 64 18 81 81 SE 5 7 29.91 1013 10 16.0934 0 0
8:55 am 08:55 Partly Cloudy 71 21.8 65 18.1 80 80 SE 6 9 29.91 1013 10 16.0934 0 0
9:15 am 09:15 Mostly Cloudy 71 21.8 64 17.9 79 79 SE 5 7 29.91 1013 10 16.0934 0 0
9:35 am 09:35 Cloudy 72 22.1 65 18.2 79 79 S 3 6 29.91 1013 10 16.0934 0 0
9:55 am 09:55 Cloudy 72 22.4 65 18.1 77 77 ESE 6 9 29.88 1012 10 16.0934 0 0
10:15 am 10:15 Cloudy 73 22.9 65 18.4 76 76 SE 6 9 29.88 1012 10 16.0934 0 0
10:35 am 10:35 Cloudy 75 23.8 66 18.8 74 74 SSE 6 9 29.88 1012 10 16.0934 0 0
10:55 am 10:55 Cloudy 75 23.9 65 18.3 71 71 SSE 10 17 29.88 1012 10 16.0934 0 0
11:15 am 11:15 Cloudy 76 24.3 65 18.4 70 70 SSE 8 13 29.88 1012 10 16.0934 0 0
11:35 am 11:35 Cloudy 76 24.6 65 18.4 68 68 S 12 19 29.85 1011 10 16.0934 0 0
11:55 am 11:55 Cloudy 76 24.7 65 18.1 67 67 SSE 13 20 29.85 1011 10 16.0934 0 0
12:15 pm 12:15 Cloudy 76 24.3 65 18.1 68 68 S 12 19 29.85 1011 10 16.0934 0 0
12:35 pm 12:35 Cloudy 76 24.3 66 18.7 71 71 SSE 9 15 29.85 1011 10 16.0934 0 0
12:55 pm 12:55 Cloudy 75 23.9 65 18.5 72 72 S 14 22 29.85 1011 10 16.0934 0 0
1:15 pm 13:15 Cloudy with Light Rain 71 21.7 67 19.7 88 88 S 7 11 29.85 1011 7 11.26538 0.01 0.254
1:35 pm 13:35 Cloudy 72 22 68 19.9 88 88 SSE 9 15 29.85 1011 10 16.0934 0.01 0.254
1:55 pm 13:55 Cloudy 72 22 68 20 88 88 SSE 8 13 29.83 1010 10 16.0934 0.01 0.254
2:15 pm 14:15 Cloudy 71 21.8 68 20 90 90 SE 8 13 29.83 1010 10 16.0934 0 0
2:35 pm 14:35 Cloudy 72 22.2 68 20.1 88 88 Calm 29.83 1010 10 16.0934 0 0
2:55 pm 14:55 Cloudy 72 22.4 68 19.8 85 85 SE 6 9 29.8 1009 10 16.0934 0 0
3:15 pm 15:15 Cloudy 73 22.6 67 19.7 84 84 S 7 11 29.8 1009 10 16.0934 0 0
3:35 pm 15:35 Cloudy 73 23 68 19.9 83 83 SSE 6 9 29.8 1009 10 16.0934 0 0
3:55 pm 15:55 Cloudy 74 23.4 68 20.2 82 82 SSE 8 13 29.77 1008 10 16.0934 0 0
4:15 pm 16:15 Cloudy 75 23.8 68 20 79 79 SSE 9 15 29.77 1008 10 16.0934 0 0
4:35 pm 16:35 Cloudy 75 23.8 68 20.1 80 80 SSE 12 19 29.77 1008 10 16.0934 0 0
4:55 pm 16:55 Cloudy 75 23.8 68 20 79 79 S 7 11 29.77 1008 10 16.0934 0 0
5:15 pm 17:15 Cloudy 76 24.3 69 20.3 78 78 SSE 9 15 29.77 1008 10 16.0934 0 0
5:35 pm 17:35 Cloudy 76 24.2 68 20.2 78 78 SSE 7 11 29.77 1008 10 16.0934 0 0
5:55 pm 17:55 Cloudy 75 23.9 68 20 79 79 SSE 7 11 29.74 1007 10 16.0934 0 0
6:15 pm 18:15 Cloudy 75 23.9 68 20.1 79 79 SSE 6 9 29.74 1007 10 16.0934 0 0
6:35 pm 18:35 Cloudy 75 23.7 69 20.3 81 81 SSE 5 7 29.74 1007 10 16.0934 0 0
6:55 pm 18:55 Cloudy 75 23.7 69 20.4 82 82 S 7 11 29.74 1007 10 16.0934 0 0
7:15 pm 19:15 Cloudy with Light Rain 74 23.1 69 20.7 86 86 S 5 7 29.74 1007 10 16.0934 0 0
7:35 pm 19:35 Mostly Cloudy 73 22.7 69 20.6 88 88 S 3 6 29.74 1007 10 16.0934 0 0
7:55 pm 19:55 Cloudy 73 22.6 70 20.9 90 90 SSW 3 6 29.74 1007 10 16.0934 0 0
8:15 pm 20:15 Cloudy with Light Rain 72 22.2 70 20.9 92 92 Calm 29.74 1007 10 16.0934 0 0
8:35 pm 20:35 Mostly Cloudy with Light Rain 73 22.6 70 21.1 91 91 SW 3 6 29.74 1007 10 16.0934 0 0
8:55 pm 20:55 Partly Cloudy with Light Rain 73 22.7 70 21.2 91 91 S 8 13 29.74 1007 10 16.0934 0 0
9:15 pm 21:15 Mostly Cloudy 72 22.4 70 21.2 93 93 SSW 9 15 29.77 1008 10 16.0934 0 0
9:35 pm 21:35 Partly Cloudy 73 22.6 70 21.3 92 92 SSW 9 15 29.77 1008 10 16.0934 0 0
9:55 pm 21:55 Clear 73 22.6 70 21.2 92 92 SSW 8 13 29.74 1007 10 16.0934 0 0
10:15 pm 22:15 Clear 72 22.4 70 21.1 92 92 S 6 9 29.74 1007 10 16.0934 0 0
10:35 pm 22:35 Partly Cloudy 71 21.9 70 21 95 95 SSW 3 6 29.74 1007 10 16.0934 0 0
10:55 pm 22:55 Partly Cloudy 72 22 70 21 94 94 Calm 29.77 1008 10 16.0934 0 0
11:15 pm 23:15 Partly Cloudy 71 21.5 69 20.7 95 95 S 5 7 29.77 1008 10 16.0934 0 0
11:35 pm 23:35 Mostly Cloudy 71 21.6 70 20.9 96 96 S 5 7 29.77 1008 10 16.0934 0 0
11:55 pm 23:55 Mostly Cloudy 71 21.7 70 20.9 95 95 SSW 3 6 29.74 1007 10 16.0934 0 0

Powered by AerisWeather